Time,TemperatureF,DewpointF,PressureIn,WindDirection,WindDirectionDegrees,WindSpeedMPH,WindSpeedGustMPH,Humidity,HourlyPrecipIn,Conditions,Clouds,dailyrainin,SolarRadiationWatts/m^2,SoftwareType,DateUTC
2013-01-11 00:03:00,67.0,65.0,-100.00,SE,127,7.0,-999.0,91,0.00,,,-99.99,0.000000,,2013-01-11 05:03:00,
2013-01-11 00:13:00,67.0,65.0,-100.00,ESE,123,6.0,-999.0,91,0.00,,,-99.99,0.000000,,2013-01-11 05:13:00,
2013-01-11 00:23:00,67.0,65.0,-100.00,ESE,123,6.0,-999.0,91,0.00,,,-99.99,0.000000,,2013-01-11 05:23:00,
2013-01-11 00:33:00,67.0,65.0,-100.00,ESE,119,5.0,-999.0,91,0.00,,,-99.99,0.000000,,2013-01-11 05:33:00,
2013-01-11 00:43:00,67.0,64.0,-100.00,ESE,108,4.0,-999.0,92,0.00,,,-99.99,0.000000,,2013-01-11 05:43:00,
2013-01-11 00:53:00,67.0,64.0,-100.00,ESE,108,4.0,-999.0,92,0.00,,,-99.99,0.000000,,2013-01-11 05:53:00,
2013-01-11 01:03:00,66.0,64.0,-100.00,ESE,117,4.0,-999.0,93,0.00,,,-99.99,0.000000,,2013-01-11 06:03:00,
2013-01-11 01:12:00,65.0,64.0,-100.00,SE,132,3.0,-999.0,94,0.00,,,-99.99,0.000000,,2013-01-11 06:12:00,
2013-01-11 01:22:00,65.0,64.0,-100.00,SE,132,3.0,-999.0,94,0.00,,,-99.99,0.000000,,2013-01-11 06:22:00,
2013-01-11 01:32:00,66.0,64.0,-100.00,SE,130,4.0,-999.0,94,0.00,,,-99.99,0.000000,,2013-01-11 06:32:00,
2013-01-11 01:42:00,65.0,64.0,-100.00,SE,142,3.0,-999.0,95,0.00,,,-99.99,0.000000,,2013-01-11 06:42:00,
2013-01-11 01:52:00,65.0,64.0,-100.00,SE,142,3.0,-999.0,95,0.00,,,-99.99,0.000000,,2013-01-11 06:52:00,
2013-01-11 02:02:00,65.0,63.0,-100.00,SE,143,4.0,-999.0,96,0.00,,,-99.99,0.000000,,2013-01-11 07:02:00,
2013-01-11 02:12:00,65.0,64.0,-100.00,SE,141,4.0,-999.0,96,0.00,,,-99.99,0.000000,,2013-01-11 07:12:00,
2013-01-11 02:22:00,65.0,64.0,-100.00,SE,141,4.0,-999.0,96,0.00,,,-99.99,0.000000,,2013-01-11 07:22:00,
2013-01-11 02:32:00,65.0,64.0,-100.00,SE,139,3.0,-999.0,96,0.00,,,-99.99,0.100000,,2013-01-11 07:32:00,
2013-01-11 02:42:00,65.0,64.0,-100.00,SE,135,3.0,-999.0,96,0.00,,,-99.99,0.100000,,2013-01-11 07:42:00,
2013-01-11 02:52:00,65.0,64.0,-100.00,SE,135,3.0,-999.0,96,0.00,,,-99.99,0.100000,,2013-01-11 07:52:00,
2013-01-11 03:02:00,65.0,64.0,-100.00,SE,134,3.0,-999.0,97,0.00,,,-99.99,0.100000,,2013-01-11 08:02:00,
2013-01-11 03:12:00,65.0,64.0,-100.00,SE,134,4.0,-999.0,97,0.00,,,-99.99,0.100000,,2013-01-11 08:12:00,
2013-01-11 03:22:00,65.0,64.0,-100.00,SE,134,4.0,-999.0,97,0.00,,,-99.99,0.100000,,2013-01-11 08:22:00,
2013-01-11 03:32:00,65.0,65.0,-100.00,SE,129,4.0,-999.0,97,0.00,,,-99.99,0.100000,,2013-01-11 08:32:00,
2013-01-11 03:42:00,65.0,64.0,-100.00,ESE,114,3.0,-999.0,97,0.00,,,-99.99,0.100000,,2013-01-11 08:42:00,
2013-01-11 03:53:00,65.0,64.0,-100.00,ESE,114,3.0,-999.0,97,0.00,,,-99.99,0.100000,,2013-01-11 08:53:00,
2013-01-11 04:02:00,64.0,63.0,-100.00,ESE,113,2.0,-999.0,97,0.00,,,-99.99,0.100000,,2013-01-11 09:02:00,
2013-01-11 04:12:00,64.0,63.0,-100.00,East,97,2.0,-999.0,97,0.00,,,-99.99,0.100000,,2013-01-11 09:12:00,
2013-01-11 04:23:00,64.0,63.0,-100.00,East,97,2.0,-999.0,97,0.00,,,-99.99,0.100000,,2013-01-11 09:23:00,
2013-01-11 04:32:00,64.0,63.0,-100.00,ENE,75,2.0,-999.0,97,0.00,,,-99.99,0.100000,,2013-01-11 09:32:00,
2013-01-11 04:42:00,65.0,64.0,-100.00,East,80,2.0,-999.0,97,0.00,,,-99.99,0.100000,,2013-01-11 09:42:00,
2013-01-11 04:52:00,65.0,64.0,-100.00,East,80,2.0,-999.0,97,0.00,,,-99.99,0.100000,,2013-01-11 09:52:00,
2013-01-11 05:02:00,65.0,64.0,-100.00,NE,48,2.0,-999.0,97,0.00,,,-99.99,0.200000,,2013-01-11 10:02:00,
2013-01-11 05:12:00,65.0,64.0,-100.00,ENE,77,3.0,-999.0,97,0.00,,,-99.99,0.200000,,2013-01-11 10:12:00,
2013-01-11 05:22:00,65.0,64.0,-100.00,ENE,77,3.0,-999.0,97,0.00,,,-99.99,0.200000,,2013-01-11 10:22:00,
2013-01-11 05:32:00,65.0,64.0,-100.00,East,95,4.0,-999.0,98,0.00,,,-99.99,0.200000,,2013-01-11 10:32:00,
2013-01-11 05:42:00,65.0,65.0,-100.00,East,99,3.0,-999.0,98,0.00,,,-99.99,0.200000,,2013-01-11 10:42:00,
2013-01-11 05:52:00,65.0,65.0,-100.00,East,99,3.0,-999.0,98,0.00,,,-99.99,0.200000,,2013-01-11 10:52:00,
2013-01-11 06:03:00,65.0,65.0,-100.00,East,95,3.0,-999.0,98,0.00,,,-99.99,0.200000,,2013-01-11 11:03:00,
2013-01-11 06:12:00,65.0,65.0,-100.00,ENE,69,3.0,-999.0,97,0.00,,,-99.99,0.200000,,2013-01-11 11:12:00,
2013-01-11 06:22:00,65.0,65.0,-100.00,ENE,69,3.0,-999.0,97,0.00,,,-99.99,0.200000,,2013-01-11 11:22:00,
2013-01-11 06:33:00,65.0,64.0,-100.00,ENE,57,3.0,-999.0,98,0.00,,,-99.99,0.200000,,2013-01-11 11:33:00,
2013-01-11 06:43:00,65.0,64.0,-100.00,ENE,64,4.0,-999.0,97,0.00,,,-99.99,0.100000,,2013-01-11 11:43:00,
2013-01-11 06:53:00,65.0,64.0,-100.00,ENE,64,4.0,-999.0,97,0.00,,,-99.99,0.100000,,2013-01-11 11:53:00,
2013-01-11 07:03:00,65.0,64.0,-100.00,ENE,73,3.0,-999.0,98,0.00,,,-99.99,0.100000,,2013-01-11 12:03:00,
2013-01-11 07:12:00,65.0,64.0,-100.00,NE,48,3.0,-999.0,98,0.00,,,-99.99,0.200000,,2013-01-11 12:12:00,
2013-01-11 07:22:00,65.0,64.0,-100.00,NE,48,3.0,-999.0,98,0.00,,,-99.99,0.200000,,2013-01-11 12:22:00,
2013-01-11 07:33:00,65.0,64.0,-100.00,NE,44,3.0,-999.0,98,0.00,,,-99.99,2.600000,,2013-01-11 12:33:00,
2013-01-11 07:43:00,65.0,65.0,-100.00,NNE,30,4.0,-999.0,98,0.00,,,-99.99,6.500000,,2013-01-11 12:43:00,
2013-01-11 07:53:00,65.0,65.0,-100.00,NNE,30,4.0,-999.0,98,0.00,,,-99.99,6.500000,,2013-01-11 12:53:00,
2013-01-11 08:03:00,66.0,65.0,-100.00,NNE,14,4.0,-999.0,98,0.00,,,-99.99,17.000000,,2013-01-11 13:03:00,
2013-01-11 08:13:00,66.0,65.0,-100.00,North,9,4.0,-999.0,98,0.00,,,-99.99,33.900002,,2013-01-11 13:13:00,
2013-01-11 08:22:00,66.0,65.0,-100.00,North,9,4.0,-999.0,98,0.00,,,-99.99,33.900002,,2013-01-11 13:22:00,
2013-01-11 08:33:00,66.0,66.0,-100.00,NNE,33,3.0,-999.0,98,0.00,,,-99.99,66.400002,,2013-01-11 13:33:00,
2013-01-11 08:43:00,66.0,66.0,-100.00,NNE,33,3.0,-999.0,98,0.00,,,-99.99,66.400002,,2013-01-11 13:43:00,
2013-01-11 08:53:00,67.0,66.0,-100.00,ENE,61,3.0,-999.0,97,0.00,,,-99.99,89.400002,,2013-01-11 13:53:00,
2013-01-11 09:03:00,67.0,67.0,-100.00,ENE,59,3.0,-999.0,97,0.00,,,-99.99,157.399994,,2013-01-11 14:03:00,
2013-01-11 09:12:00,68.0,68.0,-100.00,East,79,8.0,-999.0,97,0.00,,,-99.99,137.100006,,2013-01-11 14:12:00,
2013-01-11 09:23:00,68.0,68.0,-100.00,East,79,8.0,-999.0,97,0.00,,,-99.99,137.100006,,2013-01-11 14:23:00,
2013-01-11 09:33:00,70.0,69.0,-100.00,East,84,4.0,-999.0,96,0.00,,,-99.99,267.500000,,2013-01-11 14:33:00,
2013-01-11 09:43:00,71.0,69.0,-100.00,East,94,5.0,-999.0,94,0.00,,,-99.99,275.799988,,2013-01-11 14:43:00,
2013-01-11 09:53:00,71.0,69.0,-100.00,East,94,5.0,-999.0,94,0.00,,,-99.99,275.799988,,2013-01-11 14:53:00,
2013-01-11 10:03:00,72.0,69.0,-100.00,East,79,5.0,-999.0,91,0.00,,,-99.99,315.000000,,2013-01-11 15:03:00,
2013-01-11 10:13:00,74.0,70.0,-100.00,East,100,6.0,-999.0,87,0.00,,,-99.99,422.200012,,2013-01-11 15:13:00,
2013-01-11 10:23:00,74.0,70.0,-100.00,East,100,6.0,-999.0,87,0.00,,,-99.99,422.200012,,2013-01-11 15:23:00,
2013-01-11 10:33:00,74.0,70.0,-100.00,ESE,120,7.0,-999.0,85,0.00,,,-99.99,234.199997,,2013-01-11 15:33:00,
2013-01-11 10:43:00,74.0,69.0,-100.00,ESE,113,7.0,-999.0,86,0.00,,,-99.99,239.300003,,2013-01-11 15:43:00,
2013-01-11 10:53:00,74.0,69.0,-100.00,ESE,113,7.0,-999.0,86,0.00,,,-99.99,239.300003,,2013-01-11 15:53:00,
2013-01-11 11:03:00,74.0,70.0,-100.00,ESE,105,6.0,-999.0,85,0.00,,,-99.99,252.699997,,2013-01-11 16:03:00,
2013-01-11 11:12:00,74.0,69.0,-100.00,ESE,105,5.0,-999.0,82,0.00,,,-99.99,129.199997,,2013-01-11 16:12:00,
2013-01-11 11:23:00,74.0,69.0,-100.00,ESE,105,5.0,-999.0,82,0.00,,,-99.99,129.199997,,2013-01-11 16:23:00,
2013-01-11 11:33:00,75.0,68.0,-100.00,East,94,5.0,-999.0,80,0.00,,,-99.99,202.899994,,2013-01-11 16:33:00,
2013-01-11 11:43:00,75.0,69.0,-100.00,East,99,6.0,-999.0,82,0.03,,,-99.99,174.300003,,2013-01-11 16:43:00,
2013-01-11 11:53:00,75.0,69.0,-100.00,East,99,6.0,-999.0,82,0.03,,,-99.99,174.300003,,2013-01-11 16:53:00,
2013-01-11 12:03:00,74.0,70.0,-100.00,SE,127,4.0,-999.0,87,0.00,,,-99.99,378.200012,,2013-01-11 17:03:00,
2013-01-11 12:12:00,76.0,71.0,-100.00,East,87,3.0,-999.0,85,0.00,,,-99.99,508.600006,,2013-01-11 17:12:00,
2013-01-11 12:22:00,76.0,71.0,-100.00,East,87,3.0,-999.0,85,0.00,,,-99.99,508.600006,,2013-01-11 17:22:00,
2013-01-11 12:33:00,75.0,70.0,-100.00,NE,45,5.0,-999.0,84,0.00,,,-99.99,254.399994,,2013-01-11 17:33:00,
2013-01-11 12:43:00,74.0,70.0,-100.00,ESE,105,5.0,-999.0,88,0.00,,,-99.99,348.000000,,2013-01-11 17:43:00,
2013-01-11 12:53:00,74.0,70.0,-100.00,ESE,105,5.0,-999.0,88,0.00,,,-99.99,348.000000,,2013-01-11 17:53:00,
2013-01-11 13:03:00,75.0,72.0,-100.00,SE,135,7.0,-999.0,88,0.00,,,-99.99,524.599976,,2013-01-11 18:03:00,
2013-01-11 13:13:00,77.0,71.0,-100.00,SE,131,9.0,-999.0,82,0.00,,,-99.99,618.500000,,2013-01-11 18:13:00,
2013-01-11 13:23:00,77.0,71.0,-100.00,SE,131,9.0,-999.0,82,0.00,,,-99.99,618.500000,,2013-01-11 18:23:00,
2013-01-11 13:33:00,78.0,70.0,-100.00,SE,132,8.0,-999.0,76,0.00,,,-99.99,636.400024,,2013-01-11 18:33:00,
2013-01-11 13:43:00,78.0,70.0,-100.00,SE,128,9.0,-999.0,74,0.00,,,-99.99,568.099976,,2013-01-11 18:43:00,
2013-01-11 13:53:00,78.0,70.0,-100.00,SE,128,9.0,-999.0,74,0.00,,,-99.99,568.099976,,2013-01-11 18:53:00,
2013-01-11 14:03:00,77.0,69.0,-100.00,SE,129,10.0,-999.0,76,0.00,,,-99.99,225.600006,,2013-01-11 19:03:00,
2013-01-11 14:12:00,78.0,69.0,-100.00,SE,135,10.0,-999.0,75,0.00,,,-99.99,358.500000,,2013-01-11 19:12:00,
2013-01-11 14:22:00,78.0,69.0,-100.00,SE,135,10.0,-999.0,75,0.00,,,-99.99,358.500000,,2013-01-11 19:22:00,
2013-01-11 14:32:00,78.0,69.0,-100.00,SE,136,10.0,-999.0,74,0.00,,,-99.99,458.000000,,2013-01-11 19:32:00,
2013-01-11 14:43:00,79.0,69.0,-100.00,SE,124,13.0,-999.0,71,0.00,,,-99.99,402.500000,,2013-01-11 19:43:00,
2013-01-11 14:53:00,79.0,69.0,-100.00,SE,124,13.0,-999.0,71,0.00,,,-99.99,402.500000,,2013-01-11 19:53:00,
2013-01-11 15:03:00,78.0,69.0,-100.00,ESE,121,13.0,-999.0,73,0.00,,,-99.99,519.299988,,2013-01-11 20:03:00,
2013-01-11 15:13:00,77.0,68.0,-100.00,ESE,122,13.0,-999.0,75,0.00,,,-99.99,355.899994,,2013-01-11 20:13:00,
2013-01-11 15:22:00,77.0,68.0,-100.00,ESE,122,13.0,-999.0,75,0.00,,,-99.99,355.899994,,2013-01-11 20:22:00,
2013-01-11 15:33:00,77.0,69.0,-100.00,SE,130,12.0,-999.0,75,0.00,,,-99.99,430.600006,,2013-01-11 20:33:00,
2013-01-11 15:43:00,77.0,68.0,-100.00,SE,132,11.0,-999.0,74,0.00,,,-99.99,352.200012,,2013-01-11 20:43:00,
2013-01-11 15:53:00,77.0,68.0,-100.00,SE,132,11.0,-999.0,74,0.00,,,-99.99,352.200012,,2013-01-11 20:53:00,
2013-01-11 16:03:00,77.0,68.0,-100.00,SE,125,12.0,-999.0,74,0.00,,,-99.99,308.899994,,2013-01-11 21:03:00,
2013-01-11 16:13:00,77.0,68.0,-100.00,SE,131,10.0,-999.0,74,0.00,,,-99.99,321.200012,,2013-01-11 21:13:00,
2013-01-11 16:23:00,77.0,68.0,-100.00,SE,131,10.0,-999.0,74,0.00,,,-99.99,321.200012,,2013-01-11 21:23:00,
2013-01-11 16:33:00,77.0,68.0,-100.00,SE,134,11.0,-999.0,75,0.00,,,-99.99,194.000000,,2013-01-11 21:33:00,
2013-01-11 16:42:00,75.0,68.0,-100.00,SE,127,10.0,-999.0,78,0.00,,,-99.99,130.800003,,2013-01-11 21:42:00,
2013-01-11 16:53:00,75.0,68.0,-100.00,SE,127,10.0,-999.0,78,0.00,,,-99.99,130.800003,,2013-01-11 21:53:00,
2013-01-11 17:02:00,75.0,68.0,-100.00,SE,127,8.0,-999.0,80,0.00,,,-99.99,98.300003,,2013-01-11 22:02:00,
2013-01-11 17:12:00,75.0,69.0,-100.00,ESE,116,8.0,-999.0,80,0.00,,,-99.99,81.199997,,2013-01-11 22:12:00,
2013-01-11 17:22:00,75.0,69.0,-100.00,ESE,116,8.0,-999.0,80,0.00,,,-99.99,81.199997,,2013-01-11 22:22:00,
2013-01-11 17:33:00,74.0,69.0,-100.00,ESE,114,6.0,-999.0,82,0.00,,,-99.99,52.500000,,2013-01-11 22:33:00,
2013-01-11 17:42:00,74.0,69.0,-100.00,ESE,103,4.0,-999.0,83,0.00,,,-99.99,41.500000,,2013-01-11 22:42:00,
2013-01-11 17:53:00,74.0,69.0,-100.00,ESE,103,4.0,-999.0,83,0.00,,,-99.99,41.500000,,2013-01-11 22:53:00,
2013-01-11 18:02:00,73.0,69.0,-100.00,East,90,4.0,-999.0,84,0.00,,,-99.99,22.500000,,2013-01-11 23:02:00,
2013-01-11 18:13:00,72.0,68.0,-100.00,ENE,77,3.0,-999.0,86,0.00,,,-99.99,7.200000,,2013-01-11 23:13:00,
2013-01-11 18:23:00,72.0,68.0,-100.00,ENE,77,3.0,-999.0,86,0.00,,,-99.99,7.200000,,2013-01-11 23:23:00,
2013-01-11 18:32:00,72.0,68.0,-100.00,East,94,4.0,-999.0,88,0.00,,,-99.99,0.700000,,2013-01-11 23:32:00,
2013-01-11 18:43:00,71.0,68.0,-100.00,East,92,4.0,-999.0,89,0.00,,,-99.99,0.000000,,2013-01-11 23:43:00,
2013-01-11 18:53:00,71.0,68.0,-100.00,East,92,4.0,-999.0,89,0.00,,,-99.99,0.000000,,2013-01-11 23:53:00,
2013-01-11 19:02:00,70.0,67.0,-100.00,East,88,3.0,-999.0,90,0.00,,,-99.99,0.000000,,2013-01-12 00:02:00,
2013-01-11 19:12:00,70.0,67.0,-100.00,East,100,3.0,-999.0,91,0.00,,,-99.99,0.000000,,2013-01-12 00:12:00,
2013-01-11 19:23:00,70.0,67.0,-100.00,East,100,3.0,-999.0,91,0.00,,,-99.99,0.000000,,2013-01-12 00:23:00,
2013-01-11 19:33:00,69.0,67.0,-100.00,East,93,3.0,-999.0,91,0.00,,,-99.99,0.000000,,2013-01-12 00:33:00,
2013-01-11 19:43:00,69.0,67.0,-100.00,East,94,3.0,-999.0,93,0.00,,,-99.99,0.000000,,2013-01-12 00:43:00,
2013-01-11 19:53:00,69.0,67.0,-100.00,East,94,3.0,-999.0,93,0.00,,,-99.99,0.000000,,2013-01-12 00:53:00,
2013-01-11 20:02:00,68.0,67.0,-100.00,ESE,118,4.0,-999.0,93,0.00,,,-99.99,0.000000,,2013-01-12 01:02:00,
2013-01-11 20:12:00,69.0,67.0,-100.00,ESE,114,4.0,-999.0,93,0.00,,,-99.99,0.000000,,2013-01-12 01:12:00,
2013-01-11 20:22:00,69.0,67.0,-100.00,ESE,114,4.0,-999.0,93,0.00,,,-99.99,0.000000,,2013-01-12 01:22:00,
2013-01-11 20:33:00,68.0,66.0,-100.00,East,91,4.0,-999.0,94,0.00,,,-99.99,0.000000,,2013-01-12 01:33:00,
2013-01-11 20:43:00,68.0,66.0,-100.00,East,91,4.0,-999.0,94,0.00,,,-99.99,0.000000,,2013-01-12 01:43:00,
2013-01-11 20:53:00,68.0,66.0,-100.00,East,81,3.0,-999.0,94,0.00,,,-99.99,0.000000,,2013-01-12 01:53:00,
2013-01-11 21:02:00,67.0,65.0,-100.00,ENE,78,3.0,-999.0,94,0.00,,,-99.99,0.000000,,2013-01-12 02:02:00,
2013-01-11 21:12:00,67.0,65.0,-100.00,East,80,3.0,-999.0,94,0.00,,,-99.99,0.000000,,2013-01-12 02:12:00,
2013-01-11 21:22:00,67.0,65.0,-100.00,East,80,3.0,-999.0,94,0.00,,,-99.99,0.000000,,2013-01-12 02:22:00,
2013-01-11 21:33:00,66.0,65.0,-100.00,ENE,77,3.0,-999.0,94,0.00,,,-99.99,0.000000,,2013-01-12 02:33:00,
2013-01-11 21:43:00,66.0,64.0,-100.00,ENE,63,3.0,-999.0,95,0.00,,,-99.99,0.100000,,2013-01-12 02:43:00,
2013-01-11 21:53:00,66.0,64.0,-100.00,ENE,63,3.0,-999.0,95,0.00,,,-99.99,0.100000,,2013-01-12 02:53:00,
2013-01-11 22:03:00,65.0,64.0,-100.00,NE,56,4.0,-999.0,95,0.00,,,-99.99,0.100000,,2013-01-12 03:03:00,
2013-01-11 22:12:00,66.0,64.0,-100.00,ENE,67,4.0,-999.0,95,0.00,,,-99.99,0.100000,,2013-01-12 03:12:00,
2013-01-11 22:22:00,66.0,64.0,-100.00,ENE,67,4.0,-999.0,95,0.00,,,-99.99,0.100000,,2013-01-12 03:22:00,
2013-01-11 22:33:00,66.0,65.0,-100.00,East,101,5.0,-999.0,95,0.00,,,-99.99,0.100000,,2013-01-12 03:33:00,
2013-01-11 22:43:00,66.0,65.0,-100.00,ESE,113,6.0,-999.0,95,0.00,,,-99.99,0.100000,,2013-01-12 03:43:00,
2013-01-11 22:53:00,66.0,65.0,-100.00,ESE,113,6.0,-999.0,95,0.00,,,-99.99,0.100000,,2013-01-12 03:53:00,
2013-01-11 23:02:00,67.0,65.0,-100.00,SE,124,6.0,-999.0,95,0.00,,,-99.99,0.100000,,2013-01-12 04:02:00,
2013-01-11 23:12:00,67.0,66.0,-100.00,ESE,121,6.0,-999.0,95,0.00,,,-99.99,0.100000,,2013-01-12 04:12:00,
2013-01-11 23:22:00,67.0,66.0,-100.00,ESE,121,6.0,-999.0,95,0.00,,,-99.99,0.100000,,2013-01-12 04:22:00,
2013-01-11 23:32:00,67.0,66.0,-100.00,ESE,115,5.0,-999.0,95,0.00,,,-99.99,0.100000,,2013-01-12 04:32:00,
2013-01-11 23:42:00,67.0,66.0,-100.00,ESE,110,6.0,-999.0,95,0.00,,,-99.99,0.100000,,2013-01-12 04:42:00,
2013-01-11 23:52:00,67.0,66.0,-100.00,ESE,110,6.0,-999.0,95,0.00,,,-99.99,0.100000,,2013-01-12 04:52:00,